GW3530 Weather Reports


time (UTC)temp
F
wind
direction
speed
knots
gust
knots
rain 1hr
in
rain 24hr
in
rain mn
in
humidity
%
barometer
mb
20260504081545 47 30 15.6 22.6 0.00 0.00 0.00 57 1010.5
20260504044546 55 39 20.9 33.0 0.00 0.00 0.00 36 1005.9
20260504043046 56 32 15.6 25.2 0.00 0.00 0.00 40 1005.1
20260504041547 56 13 10.4 14.8 0.00 0.00 0.00 39 1004.7
20260504040056 57 36 9.6 14.8 0.00 0.00 0.00 38 1004.2
20260504034556 57 40 10.4 13.9 0.00 0.00 0.00 37 1003.9
20260504033116 58 30 13.0 15.6 0.00 0.00 0.00 36 1003.6
20260504031605 59 27 13.0 16.5 0.00 0.00 0.00 35 1003.4
20260504030004 59 42 10.4 13.9 0.00 0.00 0.00 33 1003.1
20260504024533 61 40 7.0 12.2 0.00 0.00 0.00 30 1003.0
20260504023055 62 21 12.2 16.5 0.00 0.00 0.00 28 1003.0
20260504021600 65 355 6.1 9.6 0.00 0.00 0.00 24 1002.8
20260504021502 65 5 6.1 9.6 0.00 0.00 0.00 23 1002.8
20260504020011 68 355 8.7 14.8 0.00 0.00 0.00 21 1003.0
20260504014513 70 344 12.2 16.5 0.00 0.00 0.00 19 1002.9
20260504013017 72 343 11.3 17.4 0.00 0.00 0.00 19 1002.9
20260504011516 73 335 13.0 20.9 0.00 0.00 0.00 19 1003.0
20260504010017 74 349 13.0 18.2 0.00 0.00 0.00 18 1003.1
20260504004537 74 346 13.9 20.9 0.00 0.00 0.00 18 1003.1
20260504003025 74 344 15.6 21.7 0.00 0.00 0.00 18 1003.3
20260504001526 75 333 17.4 22.6 0.00 0.00 0.00 17 1003.4
20260504000032 76 336 11.3 19.1 0.00 0.00 0.00 18 1003.4
20260503234538 76 333 8.7 20.0 0.00 0.00 0.00 18 1003.4
20260503233044 76 343 14.8 19.1 0.00 0.00 0.00 17 1003.5
20260503231553 77 313 13.0 20.0 0.00 0.00 0.00 17 1003.6
20260503230052 77 290 11.3 18.2 0.00 0.00 0.00 17 1003.6
20260503224552 78 343 12.2 17.4 0.00 0.00 0.00 18 1003.7
20260503223058 77 338 15.6 22.6 0.00 0.00 0.00 18 1004.0
20260503221600 77 311 15.6 20.9 0.00 0.00 0.00 18 1004.2
20260503221501 77 318 12.2 20.0 0.00 0.00 0.00 18 1004.2
20260503220004 77 321 14.8 19.1 0.00 0.00 0.00 18 1004.4
20260503214505 76 306 7.8 20.9 0.00 0.00 0.00 18 1004.5
20260503213016 77 323 13.0 20.9 0.00 0.00 0.00 17 1004.7
20260503211515 76 315 11.3 17.4 0.00 0.00 0.00 17 1005.1
20260503210019 76 300 13.0 18.2 0.00 0.00 0.00 17 1005.3
20260503204524 76 313 16.5 20.0 0.00 0.00 0.00 17 1005.5
20260503203029 76 321 13.9 20.9 0.00 0.00 0.00 17 1005.8
20260503201536 75 305 9.6 20.0 0.00 0.00 0.00 17 1005.8
20260503200040 75 331 12.2 19.1 0.00 0.00 0.00 17 1005.9
20260503194549 73 237 8.7 20.0 0.00 0.00 0.00 17 1006.1
20260503193049 74 293 11.3 17.4 0.00 0.00 0.00 19 1006.4
20260503191545 73 298 9.6 20.9 0.00 0.00 0.00 18 1006.5
20260503190056 74 292 8.7 19.1 0.00 0.00 0.00 20 1006.8
20260503184607 73 239 9.6 20.0 0.00 0.00 0.00 21 1007.0
20260503183103 73 267 16.5 21.7 0.00 0.00 0.00 20 1007.2
20260503183001 73 293 14.8 21.7 0.00 0.00 0.00 21 1007.2
20260503181506 73 310 11.3 20.0 0.00 0.00 0.00 21 1007.5
20260503180012 73 253 8.7 16.5 0.00 0.00 0.00 23 1007.7
20260503174517 72 290 8.7 14.8 0.00 0.00 0.00 23 1007.7
20260503173022 72 273 9.6 20.0 0.00 0.00 0.00 23 1007.9
20260503171523 69 276 7.8 14.8 0.00 0.00 0.00 32 1008.1